Location: Fornova de Taro
(44.7000°N, 10.1000°E)
Time: 22:59:31
(UTC+00:00)

Lacrosse 5 - Pass Details

Date: 26 May 2022
Orbit: 714 x 724 km, 57.0° (Epoch: 09 March)

Event Time Altitude Azimuth Distance (km) Brightness Sun altitude
Exits shadow 00:58:31 44° 190° (S) 1,003 2.1 -20.2°
Maximum altitude 00:59:55 61° 133° (SE) 821 2.0 -20.1°
Drops below altitude 10° 01:04:57 10° 54° (NE) 2,216 5.3 -19.7°
Sets 01:07:21 0° 51° (NE) 3,139 6.4 -19.5°
